TimeCST,TemperatureF,Dew PointF,Humidity,Sea Level PressureIn,VisibilityMPH,Wind Direction,Wind SpeedMPH,Gust SpeedMPH,PrecipitationIn,Events,Conditions,WindDirDegrees,DateUTC
12:53 AM,37.9,32.0,79,30.04,10.0,North,-9999.0,-,N/A,,Clear,0,2013-02-07 06:53:00
1:53 AM,41.0,33.1,73,30.02,10.0,ESE,5.8,-,N/A,,Partly Cloudy,120,2013-02-07 07:53:00
2:53 AM,39.0,32.0,76,30.00,10.0,ESE,5.8,-,N/A,,Clear,120,2013-02-07 08:53:00
3:40 AM,39.2,32.0,75,29.98,10.0,NE,4.6,-,N/A,,Mostly Cloudy,40,2013-02-07 09:40:00
3:53 AM,36.0,30.9,82,29.98,10.0,East,3.5,-,N/A,,Scattered Clouds,90,2013-02-07 09:53:00
4:53 AM,37.9,30.9,76,29.97,10.0,Calm,Calm,-,N/A,,Scattered Clouds,0,2013-02-07 10:53:00
5:53 AM,37.9,32.0,79,29.96,10.0,ENE,3.5,-,N/A,,Overcast,60,2013-02-07 11:53:00
6:50 AM,39.2,32.0,75,29.95,10.0,Calm,Calm,-,N/A,,Mostly Cloudy,0,2013-02-07 12:50:00
6:53 AM,37.9,32.0,79,29.96,10.0,Calm,Calm,-,N/A,,Overcast,0,2013-02-07 12:53:00
7:40 AM,41.0,33.8,76,29.95,10.0,Calm,Calm,-,N/A,,Overcast,0,2013-02-07 13:40:00
7:53 AM,41.0,33.1,73,29.97,10.0,Calm,Calm,-,N/A,,Overcast,0,2013-02-07 13:53:00
8:04 AM,42.8,33.8,70,29.96,10.0,Calm,Calm,-,N/A,,Overcast,0,2013-02-07 14:04:00
8:22 AM,42.8,33.8,70,29.97,10.0,Calm,Calm,-,N/A,,Overcast,0,2013-02-07 14:22:00
8:53 AM,43.0,33.1,68,29.98,10.0,SSE,3.5,-,N/A,,Overcast,160,2013-02-07 14:53:00
9:53 AM,50.0,37.0,61,29.96,10.0,SE,5.8,-,N/A,,Overcast,130,2013-02-07 15:53:00
10:53 AM,54.0,41.0,62,29.96,10.0,Variable,6.9,-,N/A,,Partly Cloudy,0,2013-02-07 16:53:00
11:53 AM,59.0,46.9,64,29.92,10.0,South,6.9,-,N/A,,Scattered Clouds,190,2013-02-07 17:53:00
12:53 PM,60.1,46.9,62,29.88,10.0,ESE,3.5,-,N/A,,Partly Cloudy,120,2013-02-07 18:53:00
1:53 PM,64.0,48.0,56,29.86,10.0,SSW,8.1,-,N/A,,Partly Cloudy,200,2013-02-07 19:53:00
2:38 PM,55.4,48.2,77,29.88,1.5,WNW,10.4,24.2,0.12,Rain,Heavy Rain,290,2013-02-07 20:38:00
2:43 PM,55.4,50.0,82,29.88,0.8,WNW,9.2,20.7,0.16,Rain,Heavy Rain,300,2013-02-07 20:43:00
2:49 PM,55.4,50.0,82,29.89,1.2,West,4.6,-,0.18,Rain,Rain,270,2013-02-07 20:49:00
2:53 PM,55.0,51.1,86,29.89,2.0,West,3.5,-,0.18,Rain,Light Rain,260,2013-02-07 20:53:00
3:01 PM,55.4,51.8,88,29.89,7.0,WSW,5.8,-,0.00,Rain,Light Rain,250,2013-02-07 21:01:00
3:10 PM,53.6,51.8,94,29.90,1.8,WSW,6.9,-,0.05,Rain,Heavy Rain,240,2013-02-07 21:10:00
3:29 PM,53.6,51.8,94,29.89,2.5,SW,5.8,-,0.11,Rain,Rain,230,2013-02-07 21:29:00
3:37 PM,53.6,51.8,94,29.88,6.0,WSW,4.6,-,0.12,Rain,Light Rain,240,2013-02-07 21:37:00
3:53 PM,53.1,51.1,93,29.89,2.5,West,4.6,-,0.15,Rain,Rain,260,2013-02-07 21:53:00
4:17 PM,53.6,51.8,94,29.87,4.0,Calm,Calm,-,0.04,Rain,Light Rain,0,2013-02-07 22:17:00
4:53 PM,54.0,51.1,90,29.88,10.0,Calm,Calm,-,0.04,,Mostly Cloudy,0,2013-02-07 22:53:00
5:53 PM,53.1,51.1,93,29.91,2.5,NW,9.2,-,0.04,Rain,Heavy Rain,320,2013-02-07 23:53:00
6:00 PM,53.6,50.0,88,29.91,3.0,NW,10.4,18.4,0.01,Rain,Rain,320,2013-02-08 00:00:00
6:17 PM,51.8,50.0,94,29.90,4.0,North,4.6,-,0.06,Rain,Rain,360,2013-02-08 00:17:00
6:53 PM,52.0,48.9,89,29.94,10.0,NW,8.1,-,0.06,,Overcast,310,2013-02-08 00:53:00
7:49 PM,50.0,46.4,87,29.94,9.0,North,8.1,-,0.02,Rain,Light Rain,350,2013-02-08 01:49:00
7:53 PM,50.0,46.9,89,29.94,10.0,North,6.9,-,0.02,Rain,Light Rain,350,2013-02-08 01:53:00
8:07 PM,50.0,46.4,87,29.93,10.0,North,10.4,-,0.01,Rain,Light Rain,350,2013-02-08 02:07:00
8:53 PM,48.9,45.0,86,29.96,10.0,North,11.5,-,0.02,,Overcast,350,2013-02-08 02:53:00
9:10 PM,48.2,44.6,87,29.97,10.0,NNW,13.8,21.9,N/A,,Overcast,340,2013-02-08 03:10:00
9:32 PM,48.2,44.6,87,29.98,8.0,North,15.0,23.0,N/A,,Overcast,350,2013-02-08 03:32:00
9:53 PM,46.0,43.0,89,29.99,7.0,North,13.8,19.6,N/A,,Overcast,350,2013-02-08 03:53:00
10:53 PM,45.0,41.0,86,30.01,10.0,North,12.7,19.6,N/A,,Overcast,10,2013-02-08 04:53:00
11:33 PM,44.6,39.2,81,30.02,10.0,North,10.4,18.4,N/A,,Overcast,360,2013-02-08 05:33:00
11:53 PM,45.0,39.9,82,30.02,10.0,North,11.5,-,N/A,,Overcast,360,2013-02-08 05:53:00